KN4RPA Weather Reports


time (UTC)temp
F
wind
direction
speed
knots
gust
knots
rain 1hr
in
rain 24hr
in
rain mn
in
humidity
%
barometer
mb
20260903050054 73 156 0.0 0.0 0.00 0.00 0.00 87 1015.6
20260903044552 74 156 0.0 0.0 0.00 0.00 0.00 87 1015.7
20260903043051 74 156 0.0 0.0 0.00 0.00 0.00 87 1015.7
20260903041551 74 156 0.0 1.7 0.00 0.00 0.00 86 1015.7
20260903040051 74 156 0.0 0.0 0.00 0.00 0.00 86 1015.6
20260903034548 74 156 0.0 0.0 0.00 0.00 0.00 85 1015.6
20260903033051 74 156 0.0 0.0 0.00 0.00 0.00 85 1015.6
20260903031550 74 156 0.0 0.0 0.00 0.00 0.00 85 1015.0
20260903030045 74 156 0.0 0.0 0.00 0.00 0.00 84 1014.9
20260903024544 75 156 0.0 0.0 0.00 0.00 0.00 83 1014.9
20260903023042 75 156 0.0 0.0 0.00 0.00 0.00 83 1014.9
20260903021544 75 156 0.0 0.0 0.00 0.00 0.00 83 1014.9
20260903020100 75 156 0.0 0.0 0.00 0.00 0.00 82 1015.1
20260903014542 76 156 0.0 0.0 0.00 0.00 0.00 82 1015.4
20260903013042 76 156 0.0 0.9 0.00 0.00 0.00 81 1015.4
20260903011542 76 156 0.0 0.0 0.00 0.00 0.00 80 1015.3
20260903010042 76 156 0.0 0.0 0.00 0.00 0.00 79 1015.7
20260903004542 76 156 0.0 0.9 0.00 0.00 0.00 78 1015.6
20260903003040 76 156 0.0 0.0 0.00 0.00 0.00 78 1015.5
20260903001553 77 156 0.0 0.0 0.00 0.00 0.00 77 1015.1
20260903000044 77 156 0.0 0.0 0.00 0.00 0.00 77 1015.1
20260902234540 77 156 0.0 0.0 0.00 0.00 0.00 76 1015.2
20260902233037 77 156 0.0 0.0 0.00 0.00 0.00 75 1015.2
20260902231539 77 156 0.0 0.0 0.00 0.00 0.00 75 1015.6
20260902230036 78 156 0.0 0.0 0.00 0.00 0.00 75 1015.9
20260902224536 78 156 0.0 0.0 0.00 0.00 0.00 75 1015.9
20260902223035 78 156 0.0 0.0 0.00 0.00 0.00 75 1016.0
20260902221556 78 156 0.0 0.0 0.00 0.00 0.00 73 1016.1
20260902220036 78 156 0.0 0.0 0.00 0.00 0.00 73 1015.5
20260902214534 78 156 0.0 0.9 0.00 0.00 0.00 72 1015.5
20260902213035 79 156 0.0 1.7 0.00 0.00 0.00 73 1015.4
20260902211533 79 156 0.0 0.0 0.00 0.00 0.00 71 1015.8
20260902210032 80 156 0.0 1.7 0.00 0.00 0.00 70 1015.8
20260902204538 80 156 0.0 1.7 0.00 0.00 0.00 68 1016.2
20260902203031 81 156 0.0 5.2 0.00 0.00 0.00 66 1015.8
20260902201538 81 190 0.0 5.2 0.00 0.00 0.00 65 1016.3
20260902200034 83 88 0.0 6.1 0.00 0.00 0.00 65 1016.1
20260902194546 84 172 0.9 2.6 0.00 0.00 0.00 62 1016.4
20260902193028 89 346 0.0 7.0 0.00 0.00 0.00 56 1016.6
20260902191536 91 54 0.0 4.3 0.00 0.00 0.00 57 1015.5
20260902190027 91 166 0.0 7.0 0.00 0.00 0.00 56 1015.2
20260902184526 90 155 0.0 6.1 0.00 0.00 0.00 57 1015.7
20260902183030 91 74 0.0 3.5 0.00 0.00 0.00 53 1015.6
20260902181525 91 74 0.0 2.6 0.00 0.00 0.00 55 1015.4
20260902180024 92 71 0.0 2.6 0.00 0.00 0.00 53 1015.7
20260902174523 92 84 0.0 3.5 0.00 0.00 0.00 51 1015.9
20260902173031 91 96 0.0 2.6 0.00 0.00 0.00 53 1016.0
20260902171523 91 98 0.0 0.9 0.00 0.00 0.00 54 1016.0
20260902170025 91 97 0.0 2.6 0.00 0.00 0.00 52 1016.0
20260902164521 91 99 0.0 3.5 0.00 0.00 0.00 55 1016.2
20260902163017 91 99 0.0 0.9 0.00 0.00 0.00 56 1016.1
20260902161516 90 93 0.0 2.6 0.00 0.00 0.00 55 1016.0
20260902160013 89 93 0.0 1.7 0.00 0.00 0.00 56 1016.0
20260902154518 89 92 0.0 2.6 0.00 0.00 0.00 58 1016.2
20260902153008 88 92 0.0 1.7 0.00 0.00 0.00 57 1016.1
20260902151506 87 92 0.0 5.2 0.00 0.00 0.00 61 1016.1
20260902150100 86 92 0.0 1.7 0.00 0.00 0.00 62 1016.2
20260902144604 85 92 0.0 3.5 0.00 0.00 0.00 66 1016.2
20260902143053 83 90 0.0 1.7 0.00 0.00 0.00 70 1016.3
20260902141554 82 93 0.0 2.6 0.00 0.00 0.00 74 1016.0
20260902140047 81 92 0.0 2.6 0.00 0.00 0.00 76 1016.0
20260902134548 80 90 0.0 1.7 0.00 0.00 0.00 79 1016.0
20260902133041 79 90 0.0 0.9 0.00 0.00 0.00 81 1015.9
20260902131554 78 90 0.0 0.9 0.00 0.00 0.00 82 1015.8
20260902130049 77 90 0.0 0.9 0.00 0.00 0.00 84 1016.0
20260902124534 77 107 0.0 0.9 0.00 0.00 0.00 85 1015.9
20260902123032 76 107 0.0 0.0 0.00 0.00 0.00 86 1015.9
20260902121529 75 107 0.0 0.0 0.00 0.00 0.00 85 1016.0
20260902120028 75 107 0.0 0.0 0.00 0.00 0.00 85 1016.0
20260902114528 75 107 0.0 0.0 0.00 0.00 0.00 84 1015.8
20260902113023 75 107 0.0 0.0 0.00 0.00 0.00 84 1016.0
20260902111522 75 107 0.0 0.0 0.00 0.00 0.00 83 1016.0
20260902110025 75 107 0.0 0.0 0.00 0.00 0.00 83 1015.8
20260902104526 76 107 0.0 0.0 0.00 0.00 0.00 82 1015.7
20260902103015 76 107 0.0 0.0 0.00 0.00 0.00 82 1015.7
20260902101513 76 107 0.0 0.0 0.00 0.00 0.00 82 1015.3
20260902100013 76 107 0.0 0.0 0.00 0.00 0.00 82 1015.3
20260902094511 76 107 0.0 0.9 0.00 0.00 0.00 82 1015.2
20260902093012 76 107 0.0 0.0 0.00 0.00 0.00 83 1015.0
20260902091509 76 107 0.0 0.0 0.00 0.00 0.00 83 1015.0
20260902090008 76 107 0.0 0.0 0.00 0.00 0.00 83 1015.1
20260902084508 76 107 0.0 0.0 0.00 0.00 0.00 82 1015.1
20260902083007 76 107 0.0 0.0 0.00 0.00 0.00 82 1015.1
20260902081506 77 107 0.0 0.0 0.00 0.00 0.00 82 1014.9
20260902080005 77 107 0.0 0.0 0.00 0.00 0.00 82 1015.1
20260902074505 77 107 0.0 0.0 0.00 0.00 0.00 82 1015.0
20260902073004 78 107 0.0 0.0 0.00 0.00 0.00 82 1015.1
20260902071600 78 107 0.0 0.0 0.00 0.00 0.00 81 1015.0
20260902070059 78 107 0.0 0.0 0.00 0.00 0.00 81 1014.9
20260902064557 79 107 0.0 0.9 0.00 0.00 0.00 80 1014.8
20260902063107 79 107 0.0 0.0 0.00 0.00 0.00 80 1014.8
20260902061555 79 107 0.0 0.0 0.00 0.00 0.00 80 1014.6
20260902060116 79 107 0.0 0.0 0.00 0.00 0.00 79 1014.4
20260902054553 79 107 0.0 0.9 0.00 0.00 0.00 80 1014.2
20260902053052 79 107 0.0 0.0 0.00 0.00 0.00 80 1014.1
20260902051550 79 107 0.0 0.0 0.00 0.00 0.00 80 1014.4